[[{"header":{"parameterUnit":"m.s-1","parameterCategory":1,"la1":30.2991,"la2":30.254,"lo1":-89.0895,"lo2":-89.0444,"dy":0.0017,"dx":0.0017,"nx":28,"ny":28,"refTime":"2024-05-03T03:00:00:Z","depth":0,"parameterNumber":2,"parameterNumberName":"U-component_of_WINDS"},"data":[0,0,0,0,0,0,0,0,0,0,0,0,0,0,0,0,0,0,0,0,0,0,0,0,0,0,0,0,0,0,0,0,0,0,0,0,0,0,0,0,0,0,0,0,0,0,0,0,0,0,0,0,0,0,0,0,0,0,-1.876,-1.876,0,-1.8727,-1.8726,-1.8726,-1.8665,-1.8664,-1.8663,-1.8662,-1.8627,-1.8627,-1.8628,0,0,0,0,0,0,0,0,0,0,0,0,0,-1.8773,-1.8773,-1.876,-1.876,-1.8759,-1.8727,-1.8726,-1.8726,-1.8665,-1.8664,-1.8662,-1.8661,-1.8627,-1.8627,-1.8628,0,0,0,0,0,0,0,0,0,0,0,0,0,-1.8756,-1.8773,-1.876,-1.8725,-1.8722,-1.8727,-1.8726,-1.8726,-1.8666,-1.8664,-1.8662,-1.8661,-1.8627,-1.8627,-1.8628,-1.8664,0,0,-1.8628,-1.8628,0,0,0,0,0,0,0,0,-1.8757,-1.8756,-1.8731,-1.8728,-1.8724,-1.8698,-1.8718,-1.8705,-1.8666,-1.8687,-1.8662,-1.866,-1.8652,-1.865,-1.8648,-1.8662,-1.8661,-1.8628,-1.8629,-1.8629,-1.8629,0,0,0,0,0,0,0,-1.8758,-1.8757,-1.8747,-1.8731,-1.8726,-1.8712,-1.8707,-1.8715,-1.868,-1.8685,-1.8681,-1.8677,-1.865,-1.8648,-1.8647,-1.866,-1.8628,-1.8629,-1.8629,-1.8629,-1.8703,-1.8705,0,0,0,0,0,0,-1.8765,-1.8758,-1.8748,-1.8746,-1.8737,-1.8713,-1.8708,-1.8708,-1.868,-1.8673,-1.8679,-1.8675,-1.8648,-1.8646,-1.8645,-1.8686,-1.8629,-1.8629,-1.8629,-1.8701,-1.8703,-1.8705,0,0,0,0,0,0,-1.8765,-1.8764,-1.8749,-1.8751,-1.8748,-1.8714,-1.8715,-1.8708,-1.8706,-1.8675,-1.8668,-1.8683,-1.8647,-1.8645,-1.866,-1.8684,-1.8629,-1.8629,-1.8699,-1.8702,-1.8704,-1.8767,0,0,0,0,0,0,-1.8766,-1.8765,-1.8778,-1.8752,-1.8748,-1.8765,-1.8717,-1.8709,-1.8707,-1.8701,-1.8677,-1.8671,-1.8645,-1.866,-1.866,-1.8683,-1.8629,-1.8697,-1.87,-1.8703,-1.8763,-1.8772,-1.8779,0,0,0,0,0,-1.8767,-1.8797,-1.8779,-1.8778,-1.8764,-1.8766,-1.8764,-1.8733,-1.8709,-1.8722,-1.8702,-1.8672,-1.8681,-1.8662,-1.8662,-1.8685,-1.8695,-1.8699,-1.8703,-1.8759,-1.877,-1.8779,0,0,0,0,0,0,-1.8827,-1.8793,-1.8773,-1.8796,-1.8784,-1.8756,-1.8771,-1.8746,-1.8741,-1.8736,-1.8698,-1.8693,-1.8713,-1.87,-1.8679,-1.8719,-1.8683,-1.8688,-1.8726,-1.8736,-1.8744,-1.8747,-1.863,0,0,0,0,0,-1.8844,-1.8848,-1.8818,-1.8841,-1.8836,-1.8805,-1.8805,-1.8782,-1.8769,-1.8764,-1.8745,-1.8733,-1.8733,-1.8734,-1.8732,-1.8761,-1.8755,-1.8777,-1.8785,-1.8792,-1.8796,-1.8811,-1.882,-1.8719,-1.8719,-1.8719,0,0,-1.8877,-1.8859,-1.8864,-1.8853,-1.8841,-1.8847,-1.8801,-1.8809,-1.8813,-1.8765,-1.8778,-1.8764,-1.8748,-1.877,-1.8779,-1.876,-1.8823,-1.8797,-1.8803,-1.8803,-1.8816,-1.8826,-1.8834,-1.8722,-1.8721,-1.8721,0,0,-1.894,-1.8927,-1.8945,-1.8934,-1.8918,-1.8897,-1.8901,-1.8877,-1.8865,-1.8878,-1.8842,-1.8846,-1.8847,-1.8837,-1.8833,-1.8894,-1.8866,-1.8894,-1.8937,-1.8952,-1.896,-1.8967,-1.8988,-1.8996,-1.8898,-1.8898,-1.8899,0,-1.8984,-1.8991,-1.8957,-1.8968,-1.8964,-1.8921,-1.8939,-1.893,-1.8914,-1.8913,-1.8892,-1.8893,-1.8879,-1.8898,-1.8913,-1.8911,-1.8915,-1.8896,-1.8961,-1.8968,-1.8974,-1.8994,-1.9002,-1.8902,-1.8902,-1.8901,-1.8901,0,-1.9045,-1.9051,-1.9067,-1.9053,-1.9051,-1.9065,-1.9034,-1.9036,-1.9014,-1.8996,-1.9009,-1.8991,-1.8985,-1.8988,-1.8967,-1.9005,-1.8994,-1.8968,-1.8932,-1.8987,-1.9006,-1.9013,-1.8907,-1.8906,-1.8905,-1.8904,0,0,-1.9146,-1.9113,-1.9119,-1.9112,-1.9091,-1.9095,-1.9107,-1.9101,-1.9104,-1.9094,-1.9104,-1.9106,-1.9082,-1.9077,-1.9054,-1.9067,-1.9116,-1.9039,-1.9038,-1.9054,-1.9157,-1.9177,-1.9186,-1.9098,-1.9099,-1.91,-1.9158,0,-1.9205,-1.9224,-1.9194,-1.922,-1.9225,-1.9184,-1.9195,-1.9183,-1.9166,-1.9168,-1.9149,-1.9151,-1.912,-1.9116,-1.9127,-1.9108,-1.9136,-1.9103,-1.9106,-1.9107,-1.9111,-1.9196,-1.9216,-1.9272,-1.9165,-1.9166,-1.9167,0,-1.9276,-1.927,-1.9296,-1.9273,-1.9274,-1.9284,-1.9277,-1.9279,-1.9265,-1.9252,-1.9246,-1.9219,-1.923,-1.9195,-1.9209,-1.9188,-1.9187,-1.9178,-1.918,-1.9178,-1.914,-1.9197,-1.9289,-1.9298,-1.9178,-1.9177,-1.9177,0,-1.9347,-1.9345,-1.9361,-1.9356,-1.933,-1.9338,-1.9327,-1.9311,-1.931,-1.9304,-1.9302,-1.9298,-1.9295,-1.9292,-1.9264,-1.9241,-1.9282,-1.9245,-1.9271,-1.9272,-1.9281,-1.9281,-1.9375,-1.9282,-1.9282,-1.9281,-1.9281,0,-1.9415,-1.9433,-1.9392,-1.9402,-1.9421,-1.9387,-1.9407,-1.9392,-1.9378,-1.9385,-1.9349,-1.9356,-1.9319,-1.9321,-1.93,-1.9315,-1.9314,-1.9304,-1.9298,-1.9307,-1.9308,-1.9306,-1.9301,-1.9284,-1.9283,-1.9283,-1.9282,0,-1.9498,-1.9471,-1.9485,-1.9459,-1.9453,-1.9468,-1.9446,-1.9454,-1.9435,-1.9443,-1.9443,-1.9414,-1.9415,-1.9387,-1.9383,-1.9368,-1.9393,-1.938,-1.9398,-1.9394,-1.9422,-1.942,-1.9518,-1.9529,-1.9429,-1.943,-1.943,0,-1.9544,-1.9556,-1.9532,-1.9533,-1.9525,-1.9528,-1.9526,-1.9493,-1.9493,-1.9478,-1.9488,-1.9487,-1.9484,-1.9488,-1.9466,-1.9463,-1.9449,-1.9484,-1.9449,-1.9458,-1.945,-1.945,-1.9451,-1.9491,-1.9492,-1.9494,-1.9494,0,-1.9628,-1.9614,-1.9613,-1.9607,-1.9607,-1.9601,-1.9593,-1.9596,-1.956,-1.9562,-1.9563,-1.9561,-1.9557,-1.9556,-1.9548,-1.9537,-1.951,-1.9506,-1.9512,-1.9521,-1.9531,-1.9526,-1.9418,-1.9503,-1.9503,-1.9502,-1.9501,-1.9501,-1.9693,-1.9703,-1.9687,-1.9687,-1.9678,-1.9671,-1.9677,-1.9659,-1.9659,-1.9653,-1.9634,-1.9638,-1.9624,-1.9611,-1.9603,-1.9606,-1.9589,-1.9597,-1.96,-1.9602,-1.9608,-1.9531,-1.9604,-1.9604,-1.9604,-1.9603,-1.9603,0,-1.9776,-1.9763,-1.9764,-1.9754,-1.9754,-1.9728,-1.9718,-1.972,-1.9724,-1.9713,-1.9711,-1.9712,-1.9711,-1.9689,-1.9686,-1.9692,-1.968,-1.9693,-1.9692,-1.969,-1.9623,-1.9618,-1.9703,-1.9703,-1.9703,-1.9703,-1.9703,-1.9703,-1.9819,-1.9833,-1.9818,-1.9828,-1.9815,-1.9819,-1.9816,-1.9809,-1.98,-1.9803,-1.9802,-1.9788,-1.9773,-1.9768,-1.9765,-1.9759,-1.9759,-1.9776,-1.9766,-1.9704,-1.9694,-1.9685,-1.9681,-1.9777,-1.9777,-1.9832,-1.9833,-1.9833]},{"header":{"parameterUnit":"m.s-1","parameterCategory":1,"la1":30.2991,"la2":30.254,"lo1":-89.0895,"lo2":-89.0444,"dy":0.0017,"dx":0.0017,"nx":28,"ny":28,"refTime":"2024-05-03T03:00:00:Z","depth":0,"parameterNumber":3,"parameterNumberName":"V-component_of_WINDS"},"data":[0,0,0,0,0,0,0,0,0,0,0,0,0,0,0,0,0,0,0,0,0,0,0,0,0,0,0,0,0,0,0,0,0,0,0,0,0,0,0,0,0,0,0,0,0,0,0,0,0,0,0,0,0,0,0,0,0,0,3.1425,3.1425,0,3.145,3.1451,3.1451,3.145,3.1449,3.1449,3.1448,3.1472,3.1473,3.1474,0,0,0,0,0,0,0,0,0,0,0,0,0,3.1373,3.1374,3.1425,3.1425,3.1426,3.145,3.1451,3.1451,3.145,3.1449,3.1449,3.1448,3.1472,3.1473,3.1474,0,0,0,0,0,0,0,0,0,0,0,0,0,3.1397,3.1374,3.1425,3.1428,3.1428,3.145,3.1451,3.1451,3.145,3.1449,3.1449,3.1448,3.1471,3.1473,3.1474,3.1494,0,0,3.1478,3.1479,0,0,0,0,0,0,0,0,3.1395,3.1399,3.1427,3.1428,3.1428,3.1446,3.1441,3.1465,3.145,3.1442,3.1448,3.1448,3.1464,3.1466,3.1472,3.1495,3.1496,3.1479,3.1479,3.148,3.1481,0,0,0,0,0,0,0,3.1394,3.1398,3.1435,3.1428,3.1428,3.1427,3.143,3.1446,3.1455,3.1442,3.1442,3.1445,3.1464,3.147,3.1472,3.1496,3.1479,3.148,3.1481,3.1481,3.1538,3.1538,0,0,0,0,0,0,3.1392,3.1396,3.1434,3.1436,3.141,3.1429,3.1432,3.1441,3.1455,3.1457,3.1446,3.1445,3.1468,3.147,3.1473,3.1498,3.148,3.1481,3.1482,3.1537,3.1538,3.1539,0,0,0,0,0,0,3.1391,3.1395,3.1433,3.1416,3.1421,3.143,3.1441,3.1442,3.1448,3.1458,3.1459,3.1451,3.1468,3.1471,3.1489,3.1498,3.1482,3.1483,3.1536,3.1537,3.1538,3.1546,0,0,0,0,0,0,3.1389,3.1395,3.1403,3.1416,3.1422,3.1449,3.1441,3.1443,3.1451,3.145,3.1463,3.1464,3.1467,3.1487,3.149,3.15,3.1485,3.1536,3.1537,3.1538,3.1545,3.1548,3.1549,0,0,0,0,0,3.1387,3.1403,3.1403,3.1408,3.1432,3.145,3.1453,3.1457,3.1452,3.146,3.1466,3.1464,3.1497,3.1489,3.1493,3.1503,3.1535,3.1536,3.1538,3.1544,3.1547,3.1549,0,0,0,0,0,0,3.139,3.1405,3.1405,3.1426,3.1437,3.145,3.146,3.146,3.1471,3.147,3.1474,3.1477,3.1495,3.1501,3.1492,3.1523,3.1515,3.1517,3.1519,3.1521,3.1523,3.1522,3.1486,0,0,0,0,0,3.1393,3.1407,3.1419,3.1436,3.1442,3.145,3.1458,3.146,3.1471,3.1475,3.1483,3.1493,3.1506,3.1514,3.1526,3.1546,3.1549,3.1555,3.1557,3.1559,3.1561,3.1572,3.1575,3.1543,3.1543,3.1543,0,0,3.1399,3.1409,3.1417,3.1437,3.1446,3.146,3.1454,3.1468,3.1479,3.1477,3.1495,3.1501,3.1513,3.1532,3.1541,3.1537,3.157,3.1561,3.1562,3.1563,3.1574,3.1577,3.158,3.1544,3.1544,3.1544,0,0,3.1417,3.1427,3.1442,3.1451,3.1465,3.147,3.1474,3.1487,3.1492,3.151,3.1509,3.1521,3.1543,3.1551,3.1558,3.1581,3.158,3.1585,3.1595,3.1607,3.1609,3.1612,3.162,3.1623,3.1587,3.1587,3.1587,0,3.1423,3.1445,3.145,3.1466,3.1474,3.1475,3.1491,3.1499,3.1515,3.1521,3.1517,3.1545,3.1552,3.1574,3.158,3.1585,3.159,3.1583,3.1609,3.1611,3.1613,3.1621,3.1624,3.1587,3.1587,3.1587,3.1587,0,3.1452,3.1467,3.1478,3.1495,3.1505,3.152,3.1527,3.1537,3.1538,3.1544,3.1563,3.1572,3.1587,3.1592,3.1593,3.1614,3.1611,3.1608,3.16,3.1617,3.1624,3.1627,3.1588,3.1588,3.1588,3.1588,0,0,3.1472,3.1493,3.1497,3.1505,3.152,3.1532,3.1547,3.1562,3.157,3.1581,3.1595,3.1613,3.161,3.1618,3.1621,3.1631,3.1649,3.1626,3.1626,3.163,3.1673,3.1675,3.1679,3.1648,3.1649,3.1649,3.1672,0,3.1492,3.1521,3.1526,3.1551,3.1565,3.1566,3.158,3.159,3.1596,3.1609,3.1614,3.1628,3.1623,3.1628,3.1638,3.1644,3.1657,3.1643,3.166,3.166,3.1657,3.1683,3.1686,3.1707,3.1675,3.1675,3.1676,0,3.152,3.1533,3.156,3.1574,3.158,3.1593,3.1607,3.1619,3.1631,3.1635,3.1644,3.1646,3.1661,3.1653,3.1674,3.1665,3.1672,3.1676,3.1677,3.1679,3.1669,3.1685,3.1713,3.1717,3.168,3.168,3.168,0,3.1533,3.1557,3.1577,3.1583,3.16,3.1609,3.1616,3.1628,3.1637,3.1649,3.1655,3.1669,3.1677,3.1687,3.1692,3.1685,3.1713,3.1705,3.1716,3.1716,3.1722,3.1722,3.1752,3.1727,3.1726,3.1726,3.1726,0,3.1555,3.1571,3.1583,3.1595,3.1613,3.1619,3.1636,3.1643,3.1654,3.1667,3.1668,3.168,3.1685,3.1698,3.1702,3.1719,3.1722,3.1725,3.1726,3.1726,3.1725,3.173,3.1729,3.1727,3.1727,3.1727,3.1727,0,3.1573,3.1581,3.1602,3.1617,3.1621,3.1634,3.1646,3.1657,3.1663,3.168,3.1684,3.1693,3.1708,3.1714,3.1732,3.1734,3.1755,3.1754,3.1751,3.1751,3.1762,3.1761,3.1797,3.1802,3.1773,3.1773,3.1773,0,3.1587,3.1599,3.1616,3.1625,3.1633,3.1648,3.1658,3.1664,3.1674,3.1689,3.1698,3.1713,3.1726,3.1749,3.1757,3.1771,3.1771,3.1782,3.1773,3.1772,3.1771,3.1771,3.1772,3.1784,3.1785,3.1785,3.1785,0,3.1611,3.1615,3.1629,3.1645,3.1657,3.1669,3.1681,3.1688,3.1696,3.1707,3.1723,3.1733,3.1752,3.1767,3.1781,3.1788,3.1788,3.1788,3.1791,3.1791,3.1789,3.179,3.1756,3.1787,3.1787,3.1787,3.1787,3.1786,3.1627,3.1639,3.1653,3.1669,3.1679,3.1691,3.1702,3.171,3.1724,3.1741,3.1743,3.176,3.1772,3.1791,3.1799,3.1812,3.1809,3.1813,3.1815,3.1816,3.1817,3.1786,3.1814,3.1814,3.1814,3.1814,3.1814,0,3.1652,3.1661,3.1676,3.1694,3.1706,3.1706,3.172,3.173,3.1745,3.1757,3.1769,3.1788,3.1802,3.1812,3.1826,3.1835,3.1835,3.1838,3.1838,3.184,3.1818,3.1814,3.1838,3.1838,3.1838,3.1838,3.1838,3.1838,3.1667,3.1687,3.1692,3.1717,3.1726,3.1743,3.1751,3.1762,3.1771,3.1792,3.1804,3.1811,3.1821,3.1837,3.185,3.1852,3.1858,3.1861,3.1863,3.1843,3.1841,3.1839,3.1835,3.1862,3.1862,3.1883,3.1884,3.1884]}]]